Weather History for KRIV - March, 2013

Change the Weather History Date:

Sunday, March 17, 2013

  Actual Average Record
Temperature  
Mean Temperature 58 °F -  
Max Temperature 73 °F 70 °F 89 °F (2004)
Min Temperature 43 °F 43 °F 33 °F (1999)
Degree Days  
Heating Degree Days 8    
Growing Degree Days 8 (Base 50)    
Moisture  
Dew Point 50 °F    
Average Humidity 92    
Maximum Humidity 100    
Minimum Humidity 52    
Precipitation  
Precipitation 0.00 in - - ()
Sea Level Pressure  
Sea Level Pressure 29.96 in    
Wind  
Wind Speed 3 mph (WSW)    
Max Wind Speed 12 mph    
Max Gust Speed -    
Visibility 5 miles    
Events Fog    
Averages and records for this station are not official NWS values.
T = Trace of Precipitation, MM = Missing Value Source: NWS Daily Summary

Daily Weather History Graph

Daily Weather History Graph

Search for Another Location

Airport or City:

Trip Planner

Search our weather history database for the weather conditions in past years. The results will help you decide how hot, cold, wet, or windy it might be!

Date:

Astronomy

Mar. 17, 2013 Rise Set
Actual Time 6:56 AM PDT 6:58 PM PDT
Civil Twilight 6:31 AM PDT 7:23 PM PDT
Nautical Twilight 6:02 AM PDT 7:52 PM PDT
Astronomical Twilight 5:33 AM PDT 8:21 PM PDT
Moon 10:27 AM PDT (3/17) No Moon Set
Length of Visible Light 12h 52m
Length of Day
12h 02m
Waxing Crescent, 32% of the Moon is Illuminated
Mar 17
Waxing Crescent
Mar 19
First Quarter
Mar 27
Full
Apr 2
Last Quarter
Apr 10
New

Hourly Weather History & Observations

Time (PDT) Temp. Windchill Dew Point Humidity Pressure Visibility Wind Dir Wind Speed Gust Speed Precip Events Conditions
12:58 AM 45.5 °F - 43.9 °F 94% 29.93 in 10.0 mi Calm Calm - N/A   Clear
1:58 AM 43.7 °F - 43.3 °F 99% 29.94 in 8.0 mi NNW 1.2 mph - N/A   Clear
2:58 AM 43.7 °F 40.3 °F 43.7 °F 100% 29.94 in 7.0 mi WNW 5.8 mph - N/A   Clear
3:27 AM 46.4 °F 43.5 °F 46.4 °F 100% 29.94 in 4.0 mi West 5.8 mph - N/A   Partly Cloudy
3:37 AM 48.2 °F - 48.2 °F 100% 29.95 in 0.2 mi West 6.9 mph - N/A Fog Fog
3:58 AM 48.4 °F - 48.4 °F 100% 29.92 in 0.2 mi West 3.5 mph - N/A Fog Fog
4:58 AM 48.0 °F - 48.0 °F 100% 29.91 in 0.2 mi Calm Calm - N/A Fog Fog
5:55 AM 47.1 °F - 47.1 °F 100% 29.95 in 0.5 mi SSE 4.6 mph - N/A Fog Fog
6:20 AM 46.4 °F 44.3 °F 46.4 °F 100% 29.96 in 0.2 mi SE 4.6 mph - N/A Fog Fog
6:58 AM 47.1 °F - 47.1 °F 100% 29.95 in 0.2 mi NNW 1.2 mph - N/A Fog Fog
7:43 AM 48.2 °F - 48.2 °F 100% 29.97 in 0.2 mi West 4.6 mph - N/A Fog Fog
7:48 AM 48.2 °F - 48.2 °F 100% 29.97 in 0.2 mi Calm Calm - N/A Fog Fog
7:58 AM 47.7 °F - 47.7 °F 100% 29.96 in 0.4 mi Calm Calm - N/A Fog Fog
8:28 AM 48.2 °F - 48.2 °F 100% 29.98 in 0.4 mi WSW 2.3 mph - N/A Fog Fog
8:38 AM 48.2 °F - 48.2 °F 100% 29.98 in 0.5 mi WSW 2.3 mph - N/A Fog Fog
8:48 AM 48.2 °F - 48.2 °F 100% 29.98 in 0.8 mi Variable 2.3 mph - N/A   Overcast
8:54 AM 48.2 °F - 48.2 °F 100% 29.98 in 1.0 mi Calm Calm - N/A   Overcast
8:58 AM 48.6 °F - 48.6 °F 100% 29.99 in 1.0 mi Variable 2.3 mph - N/A   Overcast
9:03 AM 48.2 °F - 48.2 °F 100% 29.98 in 1.2 mi SE 2.3 mph - N/A   Overcast
9:08 AM 48.2 °F - 48.2 °F 100% 29.98 in 2.0 mi ESE 3.5 mph - N/A   Overcast
9:38 AM 50.0 °F - 50.0 °F 100% 29.99 in 2.0 mi ESE 5.8 mph - N/A   Overcast
9:48 AM 48.2 °F - 48.2 °F 100% 29.99 in 2.5 mi SE 6.9 mph - N/A   Overcast
9:58 AM 49.1 °F - 49.1 °F 100% 29.99 in 3.0 mi SE 4.6 mph - N/A   Overcast
10:10 AM 50.0 °F - 50.0 °F 100% 29.98 in 4.0 mi South 4.6 mph - N/A   Mostly Cloudy
10:18 AM 50.0 °F - 50.0 °F 100% 29.99 in 6.0 mi SE 2.3 mph - N/A   Mostly Cloudy
10:33 AM 51.8 °F - 51.8 °F 100% 29.99 in 7.0 mi Variable 2.3 mph - N/A   Scattered Clouds
10:58 AM 52.9 °F - 52.9 °F 100% 29.99 in 10.0 mi Calm Calm - N/A   Scattered Clouds
11:58 AM 63.1 °F - 62.6 °F 98% 29.98 in 10.0 mi Variable 3.5 mph - N/A   Clear
12:58 PM 67.3 °F - 60.4 °F 79% 29.97 in 10.0 mi WNW 6.9 mph - N/A   Clear
1:58 PM 68.5 °F - 55.9 °F 64% 29.95 in 10.0 mi WNW 11.5 mph - N/A   Clear
2:58 PM 70.3 °F - 56.5 °F 61% 29.93 in 10.0 mi NW 6.9 mph - N/A   Clear
3:58 PM 72.9 °F - 54.1 °F 52% 29.91 in 10.0 mi WNW 5.8 mph - N/A   Mostly Cloudy
4:58 PM 72.0 °F - 54.5 °F 54% 29.91 in 10.0 mi West 8.1 mph - N/A   Clear
5:58 PM 69.1 °F - 54.0 °F 58% 29.93 in 10.0 mi NW 11.5 mph - N/A   Clear
6:58 PM 62.6 °F - 51.8 °F 68% 29.93 in 10.0 mi WNW 5.8 mph - N/A   Clear
7:58 PM 59.2 °F - 50.9 °F 74% 29.96 in 10.0 mi WNW 8.1 mph - N/A   Mostly Cloudy
8:58 PM 53.6 °F - 48.7 °F 84% 29.97 in 10.0 mi Variable 2.3 mph - N/A   Clear
9:58 PM 54.0 °F - 50.9 °F 89% 29.98 in 10.0 mi South 3.5 mph - N/A   Mostly Cloudy
10:58 PM 49.8 °F - 49.3 °F 98% 29.99 in 10.0 mi SSE 1.2 mph - N/A   Clear
11:58 PM 45.7 °F - 45.7 °F 100% 29.99 in 10.0 mi Calm Calm - N/A   Clear